Location: Crescent
(42.8242°N, 73.7329°W)
Time: 17:56:49
(UTC+00:00)

Vanguard 1 - Pass Details

Date: 23 February 2026
Orbit: 653 x 3818 km, 34.2° (Epoch: 5 March)

Event Time Altitude Azimuth Distance (km) Brightness Sun altitude
Rises 18:57:21 0° 234° (SW) 3,882 14.1 32.0°
Reaches altitude 10° 18:59:40 10° 227° (SW) 3,190 14.1 31.7°
Maximum altitude 19:07:23 46° 156° (SSE) 2,285 12.7 30.9°
Drops below altitude 10° 19:21:12 10° 91° (E) 5,587 13.7 29.4°
Sets 19:26:47 0° 87° (E) 7,073 14.1 28.8°
